Regional Weather Roundup
Issued by NWS Spokane, WA

Home | Current Version | Previous Version | Text Only | Print | Product List | Glossary On
Versions: 1 2 3 4 5 6 7 8 9 10 11 12 13 14 15 16 17 18 19 20 21 22 23 24 25 26 27 28 29 30 31 32 33 34 35 36 37 38 39 40 41 42 43 44 45 46 47 48 49 50
000
NZUS01 KOTX 040110
RWROTX
EASTERN WASHINGTON/NORTHERN IDAHO ROUNDUP
NATIONAL WEATHER SERVICE, SPOKANE WA
600 PM PDT MON AUG 03 2015

Note: "fair" indicated few or no clouds below 12,000 feet with no
significant weather and/or obstructions to visibility.

...NORTHEAST WASHINGTON AND NORTHERN IDAHO PANHANDLE...

CITY           SKY/WX    TMP DP  RH WIND       PRES   REMARKS
SPOKANE INTL   CLOUDY    86  41  20 SW22      29.82S
SPOKANE DOWNTO CLOUDY    88  42  20 SW10      29.80S
COEUR D ALENE  CLOUDY    88  41  19 SW10      29.80S
DEER PARK      CLOUDY    88  42  20 S14       29.80S
SANDPOINT      CLOUDY    84  39  20 W6        29.78S
BONNERS FERRY  FAIR      84  45  24 W10       29.76R

...SOUTHEAST WASHINGTON AND SOUTHERN IDAHO PANHANDLE...

CITY           SKY/WX    TMP DP  RH WIND       PRES   REMARKS
WALLA WALLA    LGT RAIN  86  48  26 S8G20     29.83F
PULLMAN/MOSCOW CLOUDY    82  39  21 W18       29.90S
LEWISTON       CLOUDY    89  39  17 W15G23    29.80R
LOWELL           N/A     82  57  42 N3        29.80R

...COLUMBIA BASIN...

CITY           SKY/WX    TMP DP  RH WIND       PRES   REMARKS
EPHRATA        CLOUDY    89  46  22 W13       29.78R
MOSES LAKE     CLOUDY    85  50  29 SW13      29.79R
TRI CITIES     CLOUDY    88  47  24 S8        29.77F
HERMISTON      CLOUDY    85  46  25 S7        29.79F
PENDLETON      CLOUDY    84  45  25 N3        29.84F

...EAST SLOPES CASCADES...

CITY           SKY/WX    TMP DP  RH WIND       PRES   REMARKS
THE DALLES     PTSUNNY   86  50  28 NW14      29.79F
YAKIMA         CLOUDY    86  50  28 NW10      29.79F
ELLENSBURG     CLOUDY    85  41  21 NW15      29.85F
WENATCHEE      CLOUDY    89  41  18 NW14      29.78F
OMAK           CLOUDY    87  43  21 S9        29.76F

...SOUTHERN BRITISH COLUMBIA...

CITY           SKY/WX    TMP DP  RH WIND       PRES   REMARKS
PENTICTON      CLOUDY    86  50  28 S14       29.70F
CASTLEGAR      CLOUDY    81  48  32 CALM      29.78R
CRANBROOK      PTSUNNY   88  41  19 NW7       29.77F

...WESTERN MONTANA...

CITY           SKY/WX    TMP DP  RH WIND       PRES   REMARKS
MISSOULA       PTSUNNY   89  36  15 W17G29    29.77R

...NEIGHBORING CITIES...

CITY           SKY/WX    TMP DP  RH WIND       PRES   REMARKS
SEATTLE        PTSUNNY   82  55  39 SW5       29.90S
CALGARY        LGT RAIN  81  55  41 SE9       29.80S



USA.gov is the U.S. government's official web portal to all federal, state and local government web resources and services.